Regional Weather Roundup
Issued by NWS

Home | Current Version | Previous Version | Text Only | Print | Product List | Glossary On
Versions: 1 2 3 4 5 6 7 8 9 10 11 12 13 14 15 16 17 18 19 20 21 22 23 24 25 26 27 28 29 30 31 32 33 34 35 36 37 38 39 40 41 42 43 44 45 46 47 48 49 50
000
ASUS43 KMKX 171120
RWRWI

WISCONSIN REGIONAL WEATHER ROUNDUP
NATIONAL WEATHER SERVICE MILWAUKEE/SULLIVAN WI
600 AM CDT WED AUG 17 2022

NOTE: "FAIR" INDICATES FEW OR NO CLOUDS BELOW 12,000 FEET WITH NO
SIGNIFICANT WEATHER AND/OR OBSTRUCTIONS TO VISIBILITY.

WIZ001-002-006>008-014>016-023>028-171200-
NORTHWEST WISCONSIN

CITY           SKY/WX    TMP DP  RH WIND       PRES   REMARKS
SUPERIOR ARPT  FOG       53  53 100 CALM      30.15R VSB<1/4
ASHLAND        LGT RAIN  62  61  96 S6        30.16S
HAYWARD        CLOUDY    60  58  92 CALM      30.18S
SIREN          CLOUDY    64  59  81 S6        30.17R
CUMBERLAND     NOT AVBL
RICE LAKE        N/A     58  57  99 NW3       30.20R
CHETEK         MOCLDY    57  56  94 CALM      30.19R
LADYSMITH      MOCLDY    58  58 100 CALM      30.21R
EAU CLAIRE     PTCLDY    55  53  93 CALM      30.17R
MENOMONIE      PTCLDY    58  57  97 CALM      30.18S
NEW RICHMOND   CLOUDY    60  56  86 CALM      30.18R
OSCEOLA        CLOUDY    67  64  89 E3        30.20R
$$

WIZ003>005-009-010-017-018-171200-
NORTH CENTRAL WISCONSIN

CITY           SKY/WX    TMP DP  RH WIND       PRES   REMARKS
MANITOWISH WTR MOCLDY    56  56 100 CALM      30.21R
ARBOR VITAE    MOCLDY    56  55  96 CALM      30.21R
WOODRUFF       MOCLDY    56  55  96 CALM      30.21R
RHINELANDER    PTCLDY    53  51  93 CALM      30.22R
EAGLE RIVER    FOG       51  51 100 CALM      30.21S VSB<1/4
LAND O LAKES   PTCLDY    51  51 100 CALM      30.23R
PHILLIPS       PTCLDY    57  56  99 CALM      30.20S
TOMAHAWK       PTCLDY    51  50  95 CALM      30.22R
MEDFORD        PTCLDY    52  52 100 CALM      30.20S
MERRILL        PTCLDY    51  51 100 CALM      30.19S
$$

WIZ029-030-035-036-043>047-171200-
CENTRAL WISCONSIN

CITY           SKY/WX    TMP DP  RH WIND       PRES   REMARKS
WAUSAU         PTCLDY    59  54  83 CALM      30.19R
MOSINEE        PTCLDY    55  54  94 NE3       30.21R
MARSHFIELD     PTCLDY    56  54  93 CALM      30.19S
STEVENS POINT  PTCLDY    55  52  89 CALM      30.21R
WAUPACA        PTCLDY    57  55  95 CALM      30.20R
WAUTOMA        PTCLDY    50  50 100 CALM      30.19R
WISC RAPIDS    PTCLDY    56  55  97 CALM      30.20R
CAMP DOUGLAS   MOCLDY    46  46 100 CALM      30.17R FOG
$$

WIZ011>013-019>022-031-037>040-048>050-171200-
NORTHEAST WISCONSIN

CITY           SKY/WX    TMP DP  RH WIND       PRES   REMARKS
ANTIGO         PTCLDY    51  51  99 CALM      30.22R
SHAWANO        FOG       54  54 100 W3        30.19R VSB 1/2
OCONTO         PTCLDY    51  51 100 CALM      30.17S
STURGEON BAY   PTCLDY    61  61 100 CALM      30.19R FOG
GREEN BAY      PTCLDY    56  53  90 N3        30.17R
MANITOWOC      PTCLDY    56  54  93 NW3       30.17R
APPLETON       PTCLDY    59  54  82 VRB5      30.16S
CLINTONVILLE   PTCLDY    55  54  97 W5        30.20R
OSHKOSH        PTCLDY    56  54  93 CALM      30.16S
$$

WIZ032>034-041-042-053>061-171200-
SOUTHWEST WISCONSIN

CITY           SKY/WX    TMP DP  RH WIND       PRES   REMARKS
LA CROSSE      CLEAR     58  56  93 SE3       30.18R
SPARTA         CLEAR     48  47  99 CALM      30.20R
VIROQUA          N/A     58  56  96 CALM      30.19S
BOSCOBEL       FOG       56  56 100 CALM      30.18R VSB 1/4
PRAIRIE DU CHI FOG       57  56  96 E3        30.18R VSB 1/2
PLATTEVILLE    CLEAR     56  53  91 N6        30.18R
$$

WIZ056-057-062-063-064-067-068-171200-
SOUTH CENTRAL WISCONSIN

CITY           SKY/WX    TMP DP  RH WIND       PRES   REMARKS
REEDSBURG      CLEAR     51  51 100 CALM      30.19R
BARABOO/DELLS  CLEAR     50  50 100 CALM      30.18R FOG
LONE ROCK      FOG       53  52  96 NW3       30.18R VSB 1/4
MINERAL POINT  CLEAR     55  52  88 N5        30.18R
MADISON        PTCLDY    53  51  93 CALM      30.16R
MIDDLETON      CLEAR     51  51  98 CALM      30.18R
WATERTOWN      CLEAR     56  55  96 CALM      30.16R
MONROE         CLEAR     59  50  71 N7        30.16R
JANESVILLE     PTCLDY    54  54 100 CALM      30.15R
$$

WIZ051-052-058>065-066-070>072-171200-
SOUTHEAST WISCONSIN

CITY           SKY/WX    TMP DP  RH WIND       PRES   REMARKS
MILWAUKEE      PTCLDY    66  64  93 N7        30.14R
WAUKESHA       CLEAR     57  57 100 CALM      30.16R
MILWAUKEE/TIMM PTCLDY    59  55  88 N3        30.17R
RACINE         PTCLDY    65  63  93 N6        30.15R
KENOSHA        CLEAR     63  60  90 N5        30.14R
FOND DU LAC    PTCLDY    56  52  86 CALM      30.17R
SHEBOYGAN      PTCLDY    59  58  96 CALM      30.16R
WEST BEND      PTCLDY    55  54  94 CALM      30.17R
JUNEAU         PTCLDY    56  55  98 CALM      30.18R
$$

LSZ147-162-171200-
LAKE SUPERIOR

STATION/POSITION TIME  TEMP    WIND        PRES    WAVE
                       AIR SEA DIR/SP/G            HT/PER
                 (UTC) (F)     (DEG/KT/KT) (MB)    (FT/S)
W MID LAKE BUOY  1100          220/  6/  6 1020.8
DEVILS ISLAND    1100   65     180/  6/  8 1020.4F
PORT WING        1040   62     160/  4/  6 1020.0S
SAXON HARBOR     1030   63     180/  4/  5 1020.7R
$$

LMZ867-665-643>646-171200-
LAKE MICHIGAN

STATION/POSITION TIME  TEMP    WIND        PRES    WAVE
                       AIR SEA DIR/SP/G            HT/PER
                 (UTC) (F)     (DEG/KT/KT) (MB)    (FT/S)
CHAMBERS ISLAND  1040   61      CALM  /  2   N/A
N MID LAKE BUOY  1100   69      20/  4/  4 1021.1
NORTHPORT PIER   1000   64     270/  2/  3 1022.0
KEWAUNEE LAKESHO 1036          280/  3/  5 1019.7R
SHEBOYGAN LAKESH 1100   64     360/  9/  9 1021.3R
PORT WASHINGTON  1030   64     350/  4/  6 1022.0R
ATWATER BUOY     1100   66     350/  8/ 10 1022.8    1/ 4
MILWAUKEE LAKESH 1100   67     350/  8/  9   N/A
S MID LAKE BUOY  1100   69 71   70/  8/ 10 1020.0
KENOSHA   LAKESH 1100   67     350/  8/ 12 1020.3
$$

TC  - TEMPERATURE IN CELSIUS
VSB - VISIBILITY IN STATUTE MILES
WCI - WIND CHILL INDEX
HX  - HEAT INDEX




USA.gov is the U.S. government's official web portal to all federal, state and local government web resources and services.